Wetbulb
74.97 72.60 72.64 72.51 70.82 68.68 67.85 68.66 69.50 69.75 70.32 71.16 71.45 71.48 71.56 71.20 70.36 70.39 69.48 69.43 69.38 68.67
71.42 71.41 69.28 71.13 71.83 69.61 68.57 67.61 67.18 67.00 68.42 69.18 69.53 69.43 70.44 69.58 69.07 69.65 68.83 68.99 69.27 69.25
70.75 70.88 70.88 71.17 70.02 68.98 68.94 68.02 66.15 66.84 66.81 67.20 67.22 67.60 68.56 68.04 68.48 67.85 68.19 68.15 67.47 68.78
68.24 69.07 69.35 69.68 68.83 68.62 68.95 67.71 66.49 66.19 65.68 65.37 65.61 66.33 66.73 67.32 67.94 66.01 66.67 67.66 67.69 67.26
68.02 68.46 68.08 68.16 67.91 68.27 67.44 67.14 65.95 65.50 64.53 64.14 63.62 63.83 64.37 63.98 64.05 64.24 65.46 65.44 65.78 66.75
67.12 66.73 67.48 67.32 67.68 67.69 66.66 65.79 65.12 64.23 63.36 62.87 62.56 62.45 62.66 62.29 61.91 62.38 63.24 64.75 65.27 65.92
67.33 66.14 66.15 67.26 66.93 66.78 66.21 65.16 64.54 64.12 63.40 63.03 62.81 62.47 62.40 61.64 61.45 62.06 61.89 63.22 64.60 66.02
66.13 68.14 66.93 65.08 66.66 66.23 65.55 64.72 64.41 63.60 63.64 63.37 63.08 62.16 61.90 61.28 60.84 61.77 62.57 63.52 64.29 64.48
61.10 64.63 62.42 63.28 63.74 65.39 64.91 64.74 64.18 63.42 63.03 62.68 62.53 55.53 53.09 57.28 61.03 61.25 60.45 59.79 60.50 62.53
59.26 59.77 61.52 60.54 61.43 61.63 62.92 63.85 63.15 62.69 62.61 62.09 62.61 53.81 49.58 50.83 59.96 60.37 60.06 60.04 59.56 59.79
58.14 58.44 59.05 59.60 60.00 60.80 62.09 62.11 61.73 61.39 61.87 61.96 62.25 53.50 49.37 49.92 57.78 59.41 59.79 60.08 59.95 59.69
57.34 57.32 57.56 57.59 58.36 59.85 60.03 59.80 60.04 60.75 61.11 60.98 61.45 52.44 49.41 50.67 57.97 58.31 58.90 59.32 59.48 59.56
56.69 56.80 56.45 57.07 57.52 58.39 59.38 59.37 59.50 58.99 60.00 58.28 60.39 52.90 48.34 50.16 58.29 57.24 57.51 58.48 59.06 53.97
54.92 54.90 55.25 54.97 56.34 56.74 56.95 56.87 57.58 58.23 58.74 59.33 59.28 59.76 48.11 46.71 57.99 57.36 56.76 56.69 56.84 58.25
MSLP
1006.91 1007.37 1007.64 1007.98 1008.20 1008.60 1008.94 1009.10 1009.47 1010.02 1010.50 1010.90 1011.25 1011.51 1011.69 1011.85 1011.96 1012.13 1012.35 1012.58 1012.74 1012.98
1007.03 1007.37 1007.60 1007.80 1008.16 1008.48 1008.72 1009.03 1009.40 1009.88 1010.30 1010.66 1011.06 1011.33 1011.52 1011.64 1011.72 1011.74 1011.86 1012.01 1012.14 1012.26
1006.97 1007.28 1007.58 1007.79 1008.10 1008.30 1008.62 1008.99 1009.46 1009.86 1010.21 1010.58 1010.83 1011.00 1011.22 1011.36 1011.34 1011.39 1011.38 1011.52 1011.56 1011.53
1006.74 1007.08 1007.42 1007.74 1008.00 1008.28 1008.60 1008.98 1009.42 1009.81 1010.12 1010.41 1010.58 1010.70 1010.88 1011.02 1011.05 1011.09 1011.09 1011.11 1011.16 1011.07
1006.08 1006.56 1007.12 1007.47 1007.73 1008.07 1008.43 1008.85 1009.27 1009.60 1009.76 1009.92 1010.17 1010.34 1010.50 1010.63 1010.58 1010.72 1010.74 1010.64 1010.52 1010.51
1005.40 1005.85 1006.39 1007.01 1007.47 1007.84 1008.19 1008.56 1008.90 1009.22 1009.37 1009.51 1009.73 1009.99 1010.08 1010.16 1010.20 1010.23 1010.21 1010.07 1010.03 1009.88
1004.94 1005.18 1005.55 1006.05 1006.79 1007.47 1007.91 1008.24 1008.49 1008.75 1008.92 1009.06 1009.22 1009.48 1009.63 1009.70 1009.77 1009.78 1009.72 1009.64 1009.54 1009.36
1004.90 1004.78 1005.28 1005.89 1006.36 1006.84 1007.42 1007.82 1008.05 1008.27 1008.36 1008.50 1008.71 1008.89 1009.06 1009.23 1009.38 1009.42 1009.37 1009.32 1009.21 1009.01
1005.56 1005.43 1005.55 1005.91 1006.12 1006.38 1006.86 1007.28 1007.47 1007.64 1007.78 1007.96 1008.01 1008.07 1008.27 1008.48 1008.65 1008.78 1009.04 1009.20 1009.14 1008.92
1005.71 1005.67 1005.56 1005.71 1006.32 1005.86 1006.17 1006.60 1006.87 1007.03 1007.22 1007.36 1007.45 1007.59 1007.73 1008.02 1008.19 1008.35 1008.50 1008.64 1008.74 1008.63
1005.54 1005.39 1005.44 1005.50 1005.54 1005.67 1005.85 1005.92 1006.04 1006.16 1006.26 1006.40 1006.53 1006.78 1006.98 1007.23 1007.61 1007.66 1007.75 1007.89 1008.04 1008.11
1005.26 1005.16 1005.24 1005.27 1005.24 1005.18 1005.12 1005.09 1005.10 1005.08 1005.16 1005.32 1005.54 1005.78 1006.13 1006.56 1006.77 1006.80 1006.89 1007.04 1007.16 1007.28
1004.98 1004.86 1004.78 1004.78 1004.71 1004.58 1004.46 1004.26 1004.20 1004.02 1004.00 1004.16 1004.49 1004.81 1005.21 1005.62 1005.72 1005.90 1006.05 1006.13 1006.20 1006.18
1004.95 1004.84 1004.78 1004.82 1004.60 1004.38 1004.17 1004.01 1003.87 1003.37 1003.17 1003.27 1003.62 1003.88 1004.25 1004.65 1004.75 1004.91 1005.12 1005.20 1005.26 1005.23
Wind_Speed
6 3 3 4 3 3 3 1 6 6 4 2 2 3 4 4 5 5 6 8 7 6
6 6 6 6 4 2 3 1 5 4 3 2 2 3 4 3 5 6 6 6 6 7
6 6 4 5 6 5 5 4 4 2 3 4 4 4 4 4 6 7 6 6 7 6
8 8 6 5 6 5 4 4 4 5 5 5 5 5 5 5 6 7 6 6 7 9
9 8 7 6 7 6 6 6 6 5 6 5 5 5 5 5 6 7 6 10 9 9
9 10 9 9 7 7 7 7 8 8 7 6 6 6 6 6 6 6 7 8 9 10
6 10 11 10 10 8 7 7 7 8 8 7 6 7 7 6 6 5 6 7 8 9
5 5 6 6 6 8 9 9 9 8 8 8 8 8 8 9 9 8 6 6 8 9
9 5 5 7 7 7 7 8 9 9 10 8 8 13 14 9 6 6 6 6 8 9
9 9 7 5 5 8 8 9 10 11 12 13 12 12 11 12 6 6 7 7 8 10
12 12 11 11 11 10 9 11 12 14 15 15 12 13 13 14 9 9 9 9 9 11
14 13 12 13 13 11 12 13 13 14 15 15 14 13 15 12 10 11 10 10 11 13
13 12 12 12 12 11 11 12 11 15 15 16 14 12 16 14 9 11 9 9 11 15
12 12 11 13 12 11 12 11 12 14 14 13 11 11 14 15 11 10 9 10 10 10
Wind_Direction
194 201 202 182 170 178 209 193 119 139 131 154 265 274 249 232 234 228 231 241 250 252
196 209 193 184 194 161 88 120 116 136 172 194 272 290 294 253 254 246 246 239 235 244
191 204 226 144 170 179 178 183 109 171 177 218 241 252 271 272 262 248 244 255 258 243
192 198 203 177 179 192 158 157 184 196 208 223 231 236 238 252 267 272 256 245 253 262
196 192 193 200 192 191 184 184 203 217 219 219 236 239 238 255 270 281 271 250 250 256
200 195 191 197 196 195 196 195 204 220 220 219 227 235 233 239 250 263 278 280 265 240
220 206 198 185 187 198 208 217 214 219 225 231 231 239 240 245 249 259 272 281 281 267
321 190 184 186 195 199 208 220 227 235 234 226 228 233 230 235 240 234 246 274 285 277
325 294 219 206 204 225 218 225 231 239 245 246 241 230 231 224 223 233 243 258 277 282
299 290 290 273 251 234 223 233 236 240 241 243 242 239 216 208 218 224 232 238 251 266
279 279 279 275 265 256 246 237 236 238 239 240 241 231 220 220 231 237 238 239 247 255
271 265 266 267 261 254 245 242 242 242 241 241 244 227 219 209 226 235 237 241 244 248
284 284 275 269 267 268 268 261 252 247 242 240 242 231 212 198 227 240 244 245 248 245
292 295 297 302 294 284 279 275 282 265 247 243 249 243 214 207 220 232 238 246 252 249